Weather History for Cheraw, SC

Change the Weather History Date:

Wednesday, October 16, 2013

  Actual Average (KFLO) Record (KFLO)
Temperature  
Mean Temperature 67 °F 64 °F  
Max Temperature 75 °F 75 °F 87 °F (1975)
Min Temperature 59 °F 53 °F 36 °F (1978)
Degree Days  
Heating Degree Days 0 3  
Month to date heating degree days 34  
Since 1 July heating degree days 43  
Cooling Degree Days 2 2  
Month to date cooling degree days 60  
Year to date cooling degree days 2016  
Growing Degree Days 17 (Base 50)    
Moisture  
Dew Point 61 °F    
Average Humidity 85    
Maximum Humidity 100    
Minimum Humidity 57    
Precipitation  
Precipitation 0.00 in 0.10 in 0.96 in (1964)
Month to date precipitation 1.75  
Year to date precipitation 35.90  
Sea Level Pressure  
Sea Level Pressure 30.02 in    
Wind  
Wind Speed - (North)    
Max Wind Speed -    
Max Gust Speed -    
Visibility 10 miles    
Events Rain    
T = Trace of Precipitation, MM = Missing Value Source: NWS Daily Summary

Daily Weather History Graph

Daily Weather History Graph

Search for Another Location

Airport:

Trip Planner

Search our weather history database for the weather conditions in past years. The results will help you decide how hot, cold, wet, or windy it might be!

Date:

Astronomy

Oct. 16, 2013 Rise Set
Actual Time 7:26 AM EDT 6:43 PM EDT
Civil Twilight 7:01 AM EDT 7:09 PM EDT
Nautical Twilight 6:31 AM EDT 7:38 PM EDT
Astronomical Twilight 6:02 AM EDT 8:07 PM EDT
Moon 5:18 PM EDT (10/16) 4:57 AM EDT (10/16)
Length of Visible Light 12h 07m
Length of Day
11h 17m
Waxing Gibbous, 94% of the Moon is Illuminated
Oct 16
Waxing Gibbous
Oct 18
Full
Oct 26
Last Quarter
Nov 3
New
Nov 10
First Quarter

Hourly Weather History & Observations

Time (EDT) Temp. Dew Point Humidity Pressure Visibility Wind Dir Wind Speed Gust Speed Precip Events Conditions
12:15 AM 64.4 °F 59.0 °F 83% 30.06 in 10.0 mi North - - N/A   Mostly Cloudy
12:35 AM 64.4 °F 60.8 °F 88% 30.06 in 10.0 mi North - - N/A   Mostly Cloudy
12:55 AM 64.4 °F 59.0 °F 83% 30.06 in 10.0 mi North - - N/A   Scattered Clouds
1:15 AM 64.4 °F 60.8 °F 88% 30.06 in 10.0 mi North - - N/A   Mostly Cloudy
1:35 AM 64.4 °F 60.8 °F 88% 30.05 in 10.0 mi North - - N/A   Mostly Cloudy
1:55 AM 62.6 °F 60.8 °F 94% 30.05 in 10.0 mi North - - N/A   Mostly Cloudy
2:15 AM 62.6 °F 60.8 °F 94% 30.05 in 10.0 mi North - - N/A   Overcast
2:35 AM 62.6 °F 60.8 °F 94% 30.04 in 10.0 mi North - - N/A   Mostly Cloudy
2:55 AM 62.6 °F 60.8 °F 94% 30.03 in 10.0 mi North - - N/A   Mostly Cloudy
3:15 AM 60.8 °F 59.0 °F 94% 30.03 in 10.0 mi North - - N/A   Mostly Cloudy
3:35 AM 60.8 °F 60.8 °F 100% 30.03 in 10.0 mi North - - N/A   Overcast
3:55 AM 62.6 °F 60.8 °F 94% 30.03 in 10.0 mi North - - N/A   Overcast
4:15 AM 62.6 °F 60.8 °F 94% 30.02 in 10.0 mi North - - N/A   Overcast
4:35 AM 60.8 °F 60.8 °F 100% 30.02 in 10.0 mi North - - N/A   Overcast
4:55 AM 60.8 °F 60.8 °F 100% 30.01 in 10.0 mi North - - N/A   Overcast
5:15 AM 60.8 °F 59.0 °F 94% 30.02 in 10.0 mi North - - N/A   Overcast
5:35 AM 59.0 °F 59.0 °F 100% 30.03 in 10.0 mi North - - N/A   Overcast
5:55 AM 59.0 °F 59.0 °F 100% 30.03 in 9.0 mi North - - N/A   Overcast
6:15 AM 59.0 °F 59.0 °F 100% 30.04 in 9.0 mi North - - N/A   Mostly Cloudy
6:35 AM 59.0 °F 59.0 °F 100% 30.04 in 8.0 mi North - - N/A   Partly Cloudy
6:55 AM 59.0 °F 59.0 °F 100% 30.04 in 6.0 mi North - - N/A   Mostly Cloudy
7:15 AM 59.0 °F 59.0 °F 100% 30.04 in 7.0 mi North - - N/A   Overcast
7:35 AM 59.0 °F 59.0 °F 100% 30.04 in 7.0 mi North - - N/A   Overcast
7:55 AM 59.0 °F 59.0 °F 100% 30.05 in 7.0 mi North - - N/A   Overcast
8:15 AM 60.8 °F 60.8 °F 100% 30.06 in 7.0 mi North - - N/A   Overcast
8:35 AM 60.8 °F 60.8 °F 100% 30.06 in 7.0 mi North - - N/A   Overcast
8:55 AM 62.6 °F 60.8 °F 94% 30.06 in 8.0 mi North - - N/A   Overcast
9:15 AM 62.6 °F 62.6 °F 100% 30.06 in 8.0 mi North - - N/A   Overcast
9:35 AM 64.4 °F 62.6 °F 94% 30.06 in 10.0 mi North - - N/A   Overcast
9:55 AM 64.4 °F 62.6 °F 94% 30.08 in 10.0 mi North - - N/A   Overcast
10:15 AM 66.2 °F 60.8 °F 83% 30.07 in 10.0 mi North - - N/A   Overcast
10:35 AM 66.2 °F 60.8 °F 83% 30.07 in 10.0 mi North - - N/A   Overcast
10:55 AM 68.0 °F 60.8 °F 78% 30.06 in 10.0 mi North - - N/A   Overcast
11:15 AM 66.2 °F 60.8 °F 83% 30.06 in 10.0 mi North - - N/A   Overcast
11:35 AM 66.2 °F 60.8 °F 83% 30.06 in 10.0 mi North - - N/A   Overcast
11:55 AM 68.0 °F 60.8 °F 78% 30.05 in 10.0 mi North - - N/A   Overcast
12:15 PM 68.0 °F 60.8 °F 78% 30.05 in 10.0 mi North - - N/A   Overcast
12:35 PM 68.0 °F 60.8 °F 78% 30.05 in 10.0 mi North - - N/A   Overcast
12:55 PM 68.0 °F 60.8 °F 78% 30.04 in 10.0 mi North - - N/A   Overcast
1:15 PM 71.6 °F 60.8 °F 69% 30.03 in 10.0 mi North - - N/A   Overcast
1:35 PM 69.8 °F 59.0 °F 68% 30.02 in 10.0 mi North - - N/A   Mostly Cloudy
1:55 PM 73.4 °F 59.0 °F 61% 30.01 in 10.0 mi North - - N/A   Mostly Cloudy
2:15 PM 71.6 °F 59.0 °F 64% 30.00 in 9.0 mi North - - N/A   Overcast
2:35 PM 71.6 °F 59.0 °F 64% 29.99 in 10.0 mi North - - N/A   Overcast
2:55 PM 73.4 °F 59.0 °F 61% 29.98 in 10.0 mi North - - N/A   Scattered Clouds
3:15 PM 73.4 °F 59.0 °F 61% 29.98 in 10.0 mi North - - N/A   Partly Cloudy
3:35 PM 75.2 °F 59.0 °F 57% 29.98 in 10.0 mi North - - N/A   Scattered Clouds
3:55 PM 75.2 °F 59.0 °F 57% 29.97 in 10.0 mi North - - N/A   Scattered Clouds
4:15 PM 75.2 °F 59.0 °F 57% 29.97 in 10.0 mi North - - N/A   Mostly Cloudy
4:35 PM 73.4 °F 59.0 °F 61% 29.97 in 10.0 mi North - - N/A   Scattered Clouds
4:55 PM 71.6 °F 59.0 °F 64% 29.97 in 10.0 mi North - - N/A   Scattered Clouds
5:15 PM 73.4 °F 59.0 °F 61% 29.97 in 10.0 mi North - - N/A Rain Light Rain
5:35 PM 73.4 °F 59.0 °F 61% 29.97 in 10.0 mi North - - N/A   Clear
5:55 PM 73.4 °F 59.0 °F 61% 29.97 in 10.0 mi North - - N/A   Clear
6:15 PM 69.8 °F 62.6 °F 78% 29.97 in 10.0 mi North - - N/A   Clear
6:35 PM 69.8 °F 62.6 °F 78% 29.97 in 10.0 mi North - - N/A   Clear
6:55 PM 66.2 °F 62.6 °F 88% 29.97 in 8.0 mi North - - N/A   Clear
7:15 PM 66.2 °F 62.6 °F 88% 29.98 in 10.0 mi North - - N/A   Clear
7:35 PM 66.2 °F 62.6 °F 88% 29.99 in 10.0 mi North - - N/A   Clear
7:55 PM 66.2 °F 62.6 °F 88% 29.99 in 10.0 mi North - - N/A   Clear
8:15 PM 66.2 °F 62.6 °F 88% 29.99 in 10.0 mi North - - N/A   Clear
8:35 PM 66.2 °F 62.6 °F 88% 29.99 in 10.0 mi North - - N/A   Clear
8:55 PM 66.2 °F 62.6 °F 88% 29.99 in 10.0 mi North - - N/A   Clear
9:15 PM 66.2 °F 62.6 °F 88% 29.99 in 10.0 mi North - - N/A   Clear
9:35 PM 64.4 °F 62.6 °F 94% 29.99 in 10.0 mi North - - N/A   Clear
9:55 PM 64.4 °F 62.6 °F 94% 30.00 in 10.0 mi North - - N/A   Clear
10:15 PM 64.4 °F 62.6 °F 94% 30.00 in 10.0 mi North - - N/A   Clear
10:35 PM 64.4 °F 60.8 °F 88% 29.99 in 10.0 mi North - - N/A   Clear
10:55 PM 62.6 °F 60.8 °F 94% 30.00 in 10.0 mi North - - N/A   Clear
11:15 PM 62.6 °F 60.8 °F 94% 29.99 in 9.0 mi North - - N/A   Clear
11:35 PM 62.6 °F 60.8 °F 94% 29.99 in 10.0 mi North - - N/A   Clear
11:55 PM 60.8 °F 60.8 °F 100% 29.99 in 10.0 mi North - - N/A   Clear